Location: ???????
(55.3754°N, 39.3545°E)
Time: 15:36:09
(UTC+00:00)

Cosmos 676 Rocket - Pass Details

Date: 14 April 2026
Orbit: 750 x 779 km, 74.0° (Epoch: 17 May)

Event Time Altitude Azimuth Distance (km) Brightness Sun altitude
Rises 21:12:01 0° 332° (NNW) 3,273 8.3 -24.9°
Reaches altitude 10° 21:14:25 10° 334° (NNW) 2,339 7.4 -24.9°
Maximum altitude 21:19:45 77° 60° (ENE) 800 4.0 -25.0°
Enters shadow 21:20:32 64° 123° (ESE) 861 4.0 -25.0°
